Location: Kitt Peak
(31.9639°N, 111.5992°W)
Time: 14:15:37
(UTC-07:00)

ISS - Visible Passes

Search period start: 23 June 2018 00:00
Search period end: 03 July 2018 00:00
Orbit: 403 x 408 km, 51.6° (Epoch: 24 June)

Date Brightness Start Highest point End Pass type
(mag) Time Alt. Az. Time Alt. Az. Time Alt. Az.
27 Jun -1.3 04:49:56 10° S 04:52:07 17° SE 04:54:17 10° E visible
29 Jun -3.2 04:41:00 10° SSW 04:44:11 50° SE 04:47:22 10° NE visible
30 Jun -1.9 03:51:02 18° SSE 03:52:11 22° SE 03:54:47 10° ENE visible
01 Jul -3.3 04:33:47 15° WSW 04:36:21 49° NW 04:39:33 10° NE visible
02 Jul -3.8 03:43:46 59° S 03:44:13 70° SE 03:47:29 10° NE visible
